Météo par heure à Jucás

Ce jour, 20 Juin, Dimanche

Heure Température Précipitation Vent Pression Humidité
00:00 +24°C° 0 mm 1 m/s 736 mmHg 61%
01:00 +23°C° 0 mm 1 m/s 736 mmHg 64%
02:00 +23°C° 0 mm 1 m/s 736 mmHg 68%
03:00 +22°C° 0 mm 1 m/s 736 mmHg 71%
04:00 +22°C° 0 mm 1 m/s 736 mmHg 74%
05:00 +21°C° 0 mm 1 m/s 736 mmHg 76%
06:00 +20°C° 0 mm 1 m/s 736 mmHg 79%
07:00 +23°C° 0 mm 2 m/s 737 mmHg 69%
08:00 +26°C° 0 mm 3 m/s 737 mmHg 59%
09:00 +29°C° 0 mm 4 m/s 737 mmHg 48%
10:00 +32°C° 0 mm 4 m/s 737 mmHg 44%
11:00 +34°C° 0 mm 3 m/s 736 mmHg 40%
12:00 +36°C° 0 mm 3 m/s 735 mmHg 36%
13:00 +35°C° 0 mm 3 m/s 735 mmHg 37%
14:00 +34°C° 0 mm 3 m/s 734 mmHg 39%
15:00 +34°C° 0 mm 3 m/s 734 mmHg 40%
16:00 +33°C° 0 mm 3 m/s 734 mmHg 44%
17:00 +30°C° 0 mm 2 m/s 734 mmHg 47%
18:00 +29°C° 0 mm 2 m/s 734 mmHg 51%
19:00 +29°C° 0 mm 2 m/s 735 mmHg 54%
20:00 +28°C° 0 mm 2 m/s 735 mmHg 57%
21:00 +27°C° 0 mm 2 m/s 735 mmHg 61%
22:00 +27°C° 0 mm 2 m/s 735 mmHg 64%
23:00 +26°C° 0 mm 2 m/s 735 mmHg 68%

Demain, 21 Juin, Lundi

Heure Température Précipitation Vent Pression Humidité
00:00 +25°C° 0 mm 2 m/s 735 mmHg 72%
01:00 +25°C° 0.1 mm 1 m/s 735 mmHg 77%
02:00 +24°C° 0.1 mm 1 m/s 735 mmHg 82%
03:00 +24°C° 0.1 mm 1 m/s 735 mmHg 88%
04:00 +23°C° 0 mm 1 m/s 735 mmHg 89%
05:00 +23°C° 0 mm 1 m/s 735 mmHg 91%
06:00 +23°C° 0 mm 1 m/s 735 mmHg 92%
07:00 +25°C° 0 mm 1 m/s 736 mmHg 80%
08:00 +27°C° 0 mm 2 m/s 736 mmHg 68%
09:00 +29°C° 0 mm 3 m/s 737 mmHg 56%
10:00 +31°C° 0 mm 3 m/s 736 mmHg 48%
11:00 +34°C° 0 mm 3 m/s 736 mmHg 40%
12:00 +36°C° 0 mm 3 m/s 735 mmHg 32%
13:00 +36°C° 0 mm 3 m/s 734 mmHg 31%
14:00 +37°C° 0 mm 3 m/s 734 mmHg 29%
15:00 +37°C° 0 mm 3 m/s 733 mmHg 28%
16:00 +35°C° 0 mm 3 m/s 733 mmHg 31%
17:00 +34°C° 0 mm 2 m/s 733 mmHg 34%
18:00 +31°C° 0 mm 1 m/s 733 mmHg 37%
19:00 +30°C° 0 mm 1 m/s 734 mmHg 41%
20:00 +29°C° 0 mm 1 m/s 734 mmHg 44%
21:00 +28°C° 0 mm 1 m/s 735 mmHg 47%
22:00 +27°C° 0 mm 1 m/s 735 mmHg 52%
23:00 +26°C° 0 mm 1 m/s 735 mmHg 57%

Après-demain, 22 Juin, Mardi

Heure Température Précipitation Vent Pression Humidité
00:00 +26°C° 0 mm 1 m/s 735 mmHg 62%
01:00 +25°C° 0.1 mm 1 m/s 735 mmHg 69%
02:00 +24°C° 0.1 mm 1 m/s 735 mmHg 76%
03:00 +23°C° 0.1 mm 1 m/s 735 mmHg 83%
04:00 +22°C° 0 mm 1 m/s 735 mmHg 86%
05:00 +22°C° 0 mm 1 m/s 735 mmHg 89%
06:00 +19°C° 0 mm 0 m/s 735 mmHg 93%
07:00 +24°C° 0 mm 1 m/s 736 mmHg 79%
08:00 +26°C° 0 mm 2 m/s 736 mmHg 65%
09:00 +29°C° 0 mm 3 m/s 737 mmHg 51%
10:00 +31°C° 0 mm 3 m/s 736 mmHg 44%
11:00 +34°C° 0 mm 3 m/s 736 mmHg 37%
12:00 +36°C° 0 mm 3 m/s 735 mmHg 30%
13:00 +37°C° 0 mm 3 m/s 734 mmHg 28%
14:00 +37°C° 0 mm 3 m/s 733 mmHg 25%
15:00 +38°C° 0 mm 3 m/s 733 mmHg 23%
16:00 +36°C° 0 mm 3 m/s 733 mmHg 26%
17:00 +34°C° 0 mm 2 m/s 733 mmHg 30%
18:00 +31°C° 0 mm 2 m/s 733 mmHg 33%
19:00 +30°C° 0 mm 1 m/s 733 mmHg 35%
20:00 +30°C° 0 mm 1 m/s 734 mmHg 38%
21:00 +27°C° 0 mm 0 m/s 734 mmHg 41%
22:00 +28°C° 0 mm 1 m/s 735 mmHg 45%
23:00 +27°C° 0 mm 1 m/s 735 mmHg 50%

23 Juin, Mercredi

Heure Température Précipitation Vent Pression Humidité
00:00 +27°C° 0 mm 2 m/s 735 mmHg 55%
01:00 +25°C° 0 mm 1 m/s 735 mmHg 63%
02:00 +23°C° 0 mm 1 m/s 735 mmHg 72%
03:00 +20°C° 0 mm 0 m/s 735 mmHg 81%
04:00 +19°C° 0 mm 0 m/s 735 mmHg 85%
05:00 +19°C° 0 mm 0 m/s 735 mmHg 88%
06:00 +18°C° 0 mm 0 m/s 735 mmHg 92%
07:00 +23°C° 0 mm 1 m/s 736 mmHg 78%
08:00 +27°C° 0 mm 2 m/s 736 mmHg 65%
09:00 +30°C° 0 mm 3 m/s 737 mmHg 51%
10:00 +31°C° 0 mm 3 m/s 736 mmHg 45%
11:00 +34°C° 0 mm 3 m/s 736 mmHg 38%
12:00 +36°C° 0 mm 3 m/s 735 mmHg 32%
13:00 +36°C° 0 mm 3 m/s 734 mmHg 32%
14:00 +36°C° 0 mm 4 m/s 734 mmHg 32%
15:00 +36°C° 0 mm 4 m/s 733 mmHg 32%
16:00 +34°C° 0 mm 3 m/s 733 mmHg 38%
17:00 +31°C° 0 mm 3 m/s 734 mmHg 43%
18:00 +29°C° 0 mm 2 m/s 734 mmHg 48%
19:00 +28°C° 0.1 mm 2 m/s 734 mmHg 56%
20:00 +27°C° 0.1 mm 2 m/s 735 mmHg 64%
21:00 +25°C° 0.1 mm 2 m/s 735 mmHg 72%
22:00 +24°C° 0.5 mm 2 m/s 735 mmHg 79%
23:00 +24°C° 0.5 mm 1 m/s 735 mmHg 86%

24 Juin, Jeudi

Heure Température Précipitation Vent Pression Humidité
00:00 +23°C° 0.5 mm 1 m/s 735 mmHg 93%
01:00 +23°C° 0.2 mm 2 m/s 735 mmHg 94%
02:00 +23°C° 0.2 mm 2 m/s 735 mmHg 95%
03:00 +23°C° 0.2 mm 2 m/s 735 mmHg 96%
04:00 +23°C° 0.3 mm 2 m/s 735 mmHg 96%
05:00 +23°C° 0.3 mm 2 m/s 735 mmHg 96%
06:00 +21°C° 0.3 mm 2 m/s 735 mmHg 96%
07:00 +21°C° 0.3 mm 2 m/s 736 mmHg 95%
08:00 +23°C° 0.3 mm 2 m/s 736 mmHg 95%
09:00 +23°C° 0.3 mm 1 m/s 736 mmHg 94%
10:00 +25°C° 0 mm 2 m/s 736 mmHg 79%
11:00 +28°C° 0 mm 2 m/s 736 mmHg 64%
12:00 +31°C° 0 mm 3 m/s 735 mmHg 49%
13:00 +31°C° 0 mm 3 m/s 735 mmHg 47%
14:00 +31°C° 0 mm 3 m/s 734 mmHg 46%
15:00 +31°C° 0 mm 3 m/s 733 mmHg 44%
16:00 +30°C° 0 mm 3 m/s 733 mmHg 49%
17:00 +29°C° 0 mm 2 m/s 734 mmHg 54%
18:00 +28°C° 0 mm 2 m/s 734 mmHg 59%
19:00 +27°C° 0.1 mm 2 m/s 734 mmHg 65%
20:00 +26°C° 0.1 mm 2 m/s 735 mmHg 70%
21:00 +25°C° 0.1 mm 2 m/s 736 mmHg 76%
22:00 +25°C° 0 mm 2 m/s 735 mmHg 77%
23:00 +24°C° 0 mm 2 m/s 735 mmHg 77%

25 Juin, Vendredi

Heure Température Précipitation Vent Pression Humidité
00:00 +24°C° 0 mm 2 m/s 735 mmHg 78%
01:00 +24°C° 0 mm 2 m/s 735 mmHg 77%
02:00 +24°C° 0 mm 2 m/s 735 mmHg 77%
03:00 +24°C° 0 mm 2 m/s 734 mmHg 77%
04:00 +23°C° 0 mm 2 m/s 735 mmHg 76%
05:00 +23°C° 0 mm 2 m/s 735 mmHg 75%
06:00 +23°C° 0 mm 2 m/s 735 mmHg 74%
07:00 +25°C° 0 mm 3 m/s 736 mmHg 66%
08:00 +27°C° 0 mm 3 m/s 736 mmHg 58%
09:00 +29°C° 0 mm 4 m/s 737 mmHg 49%
10:00 +30°C° 0 mm 4 m/s 736 mmHg 44%
11:00 +33°C° 0 mm 4 m/s 735 mmHg 39%
12:00 +35°C° 0 mm 4 m/s 735 mmHg 34%
13:00 +36°C° 0 mm 3 m/s 734 mmHg 32%
14:00 +36°C° 0 mm 3 m/s 733 mmHg 30%
15:00 +37°C° 0 mm 3 m/s 733 mmHg 28%
16:00 +35°C° 0 mm 3 m/s 733 mmHg 32%
17:00 +32°C° 0 mm 2 m/s 733 mmHg 35%
18:00 +30°C° 0 mm 2 m/s 733 mmHg 39%
19:00 +29°C° 0 mm 2 m/s 734 mmHg 42%
20:00 +28°C° 0 mm 1 m/s 734 mmHg 46%
21:00 +27°C° 0 mm 1 m/s 735 mmHg 49%
22:00 +26°C° 0 mm 1 m/s 735 mmHg 52%
23:00 +25°C° 0 mm 1 m/s 735 mmHg 54%
Voir plus

Nous avons besoin de votre consentement

Meteoprog et ses fournisseurs de services peuvent stocker et accéder à des données personnelles telles que des cookies, des identifiants d'appareils ou d'autres technologies similaires sur votre appareil et traiter ces données pour personnaliser le contenu et les publicités, ainsi que pour fournir des fonctionnalités de médias sociaux et analyser le trafic.

  • Stocker et/ou accéder à des informations sur votre appareil

    Des cookies, des identifiants d'appareils ou d'autres informations peuvent être stockés ou accessibles sur votre appareil aux fins indiquées ci-dessus.

  • Annonces et contenus personnalisés, mesure des annonces et des contenus, connaissance de l'audience et développement de produits

    Les annonces et le contenu peuvent être personnalisés en fonction d'un profil. D'autres données peuvent être ajoutées pour mieux personnaliser les annonces et le contenu. Les performances des publicités et du contenu peuvent être mesurées. Il est possible d'obtenir des informations sur le public qui a vu les publicités et le contenu. Ces données peuvent être utilisées pour développer ou améliorer l'expérience de l'utilisateur, les systèmes et les logiciels.

En cliquant sur "J'accepte", vous autorisez l'utilisation de cookies, des identifiants d'appareils, des balises web ou d'autres technologies similaires. Vos paramètres peuvent être modifiés dans le navigateur de votre appareil.

Dans certains cas, des intérêts légitimes peuvent être invoqués plutôt qu'un consentement. Vous pouvez en savoir plus à ce sujet dans notre Politique de confidentialité et de cookies.